Location: Dodgeville
(42.9600°N, 90.1300°W)
Time: 14:50:58
(UTC-05:00)

Amateur Radio Satellites - All Passes

Search period start: 31 May 2016 14:20
Search period end: 01 June 2016 14:20
Location: Dodgeville, 42.9600°N, 90.1300°W

Satellite Date Start Highest point End Downlink Frequencies (MHz)
Time Altitude Azimuth
ITUPSAT 1 31 May 14:24:23 14:27:49 19° 93° (E) 14:31:16 437.325
DX 1 31 May 14:27:12 14:29:11 13° 299° (WNW) 14:31:11 434.975-435.025
SPROUT 31 May 14:35:18 14:38:14 18° 295° (WNW) 14:41:09 437.525
TISAT 1 31 May 14:42:23 14:46:25 49° 288° (WNW) 14:50:25 437.305
BEESAT 31 May 14:44:26 14:48:41 31° 96° (E) 14:52:54 436.000
JAS-2 31 May 15:01:03 15:05:25 16° 276° (W) 15:09:56 435.910
ITAMSAT 1 31 May 15:01:41 15:06:51 87° 254° (WSW) 15:12:05 435.822/435.867
Gurwin Techsat 1B 31 May 15:08:56 15:13:38 32° 264° (W) 15:18:22 435.225
AO-7 31 May 15:22:45 15:30:58 69° 67° (ENE) 15:39:14 29.400- 29.500
YUBILEINY 31 May 15:50:43 15:59:07 57° 90° (E) 16:07:33 435.215
Cosmos 2491 31 May 15:51:54 16:00:31 66° 268° (W) 16:09:05 435.465 / 435.565
SWISSCUBE 31 May 15:52:40 15:57:19 51° 289° (WNW) 16:01:58 437.505
ITUPSAT 1 31 May 16:01:17 16:05:54 48° 290° (WNW) 16:10:31 437.325
Cosmos 2504 31 May 16:05:30 16:09:49 17° 77° (ENE) 16:14:15 435.465 / 435.565
KKS-1 31 May 16:06:30 16:10:14 26° 96° (E) 16:13:56 437.445
BEESAT 31 May 16:22:14 16:26:24 30° 293° (WNW) 16:30:33 436.000
RS-15 31 May 16:30:01 16:40:41 50° 110° (ESE) 16:51:53 29.354- 29.394
STARS 31 May 16:30:16 16:33:49 24° 95° (E) 16:37:21 437.465
HORYU 2 31 May 16:31:26 16:35:40 47° 72° (ENE) 16:39:55 437.375
ITAMSAT 1 31 May 16:46:11 16:47:04 10° 273° (W) 16:47:56 435.822/435.867
MOZHAYETS 4 31 May 16:53:21 16:57:58 66° 101° (E) 17:02:36
BRITE-PL 31 May 16:58:27 17:02:10 18° 61° (ENE) 17:05:52 437.365/2234.400
NOAA 18 31 May 17:00:00 17:03:52 20° 60° (ENE) 17:07:44 137.9125
CUTE-I 31 May 17:10:31 17:14:13 19° 61° (ENE) 17:17:54 437.470
PCSat 31 May 17:15:19 17:20:05 30° 48° (NE) 17:24:48 145.827
AO-7 31 May 17:17:36 17:24:20 27° 266° (W) 17:31:08 29.400- 29.500
O/OREOS (USA 219) 31 May 17:30:12 17:32:51 15° 51° (NE) 17:35:30 437.305
NOAA 15 31 May 17:42:46 17:47:53 51° 70° (ENE) 17:53:02 137.62
KKS-1 31 May 17:42:55 17:46:47 30° 292° (WNW) 17:50:39 437.445
YUBILEINY 31 May 17:48:42 17:56:19 33° 291° (WNW) 18:04:01 435.215
Cosmos 2491 31 May 17:52:54 17:55:29 12° 288° (WNW) 17:58:04 435.465 / 435.565
Cosmos 2504 31 May 17:54:38 18:01:56 86° 277° (W) 18:09:45 435.465 / 435.565
HO-68 31 May 17:56:21 17:58:23 11° 46° (NE) 18:00:24 435.675
Cubesat XI-IV 31 May 18:03:46 18:08:56 54° 71° (ENE) 18:14:08 437.490
STARS 31 May 18:06:19 18:10:12 32° 292° (WNW) 18:14:05 437.465
HORYU 2 31 May 18:09:40 18:12:29 17° 268° (W) 18:15:19 437.375
BEESAT 3 31 May 18:21:19 18:24:14 19° 43° (NE) 18:27:09 437.485
LilacSat-2 31 May 18:30:01 18:33:48 89° 82° (E) 18:37:37 437.200
CUBESAT XI-V 31 May 18:30:52 18:35:37 80° 104° (ESE) 18:40:18 437.345
MOZHAYETS 4 31 May 18:32:04 18:34:36 15° 298° (WNW) 18:37:09
BRITE-PL 31 May 18:34:19 18:40:00 75° 258° (WSW) 18:45:41 437.365/2234.400
GOMX 1 31 May 18:36:11 18:41:33 61° 73° (ENE) 18:46:45 467.674
NOAA 18 31 May 18:38:39 18:44:02 62° 257° (WSW) 18:49:28 137.9125
RS-15 31 May 18:41:50 18:53:03 56° 315° (NW) 19:04:55 29.354- 29.394
CUTE-I 31 May 18:48:32 18:53:46 61° 259° (WSW) 18:59:03 437.470
AUBIESAT-1 31 May 18:48:58 18:50:50 13° 60° (ENE) 18:52:39 437.475
PCSat 31 May 18:58:29 19:03:40 46° 247° (WSW) 19:08:48 145.827
M-CUBED/EXP-1 PRIME 31 May 18:58:32 19:01:30 21° 63° (ENE) 19:04:19 437.505
CINEMA 3 31 May 19:02:22 19:05:10 16° 64° (ENE) 19:07:55 145.822/145.860
DOVE 4 31 May 19:02:37 19:07:36 53° 73° (ENE) 19:12:22 437.250
O/OREOS (USA 219) 31 May 19:08:17 19:12:44 65° 250° (WSW) 19:17:08 437.305
SEEDS 31 May 19:13:53 19:15:49 13° 62° (ENE) 19:17:46 437.485
ISS 31 May 19:18:26 19:20:26 15° 132° (SE) 19:22:26 145.825
CANX-2 31 May 19:18:54 19:22:11 22° 67° (ENE) 19:25:29 2200.000
NOAA 15 31 May 19:23:57 19:27:57 21° 267° (W) 19:31:57 137.62
BEESAT 2 31 May 19:32:31 19:36:26 51° 53° (NE) 19:40:19 435.950
HO-68 31 May 19:37:39 19:44:32 54° 67° (ENE) 19:51:27 435.675
CUTE 1.7 + AOD 2 31 May 19:44:34 19:48:25 36° 71° (ENE) 19:52:19 437.475
Cubesat XI-IV 31 May 19:45:30 19:49:20 20° 268° (W) 19:53:12 437.490
AAUSAT CUBESAT 2 31 May 19:48:26 19:51:11 17° 65° (ENE) 19:53:57 437.432
COMPASS 1 31 May 19:49:57 19:53:10 22° 67° (ENE) 19:56:24 437.405
Cosmos 2504 31 May 19:52:10 19:56:41 17° 301° (WNW) 20:01:23 435.465 / 435.565
GONETS M04 31 May 19:52:20 19:55:14 12° 72° (ENE) 19:58:08
BEESAT 3 31 May 19:58:21 20:02:11 48° 241° (WSW) 20:05:58 437.485
PHONESAT 2.4 31 May 20:01:21 20:03:05 14° 152° (SSE) 20:04:49 2401.200-2431.200
STRAND 1 31 May 20:01:34 20:06:36 50° 100° (E) 20:11:36 437.568
Oscar 11 31 May 20:09:10 20:11:09 13° 62° (ENE) 20:13:07 145.826/435.025
CUBESAT XI-V 31 May 20:10:19 20:12:19 13° 300° (WNW) 20:14:19 437.345
AIST 1 31 May 20:12:09 20:15:25 21° 87° (E) 20:18:41
GOMX 1 31 May 20:16:10 20:19:56 19° 269° (W) 20:23:38 467.674
BRITE-PL 31 May 20:18:34 20:19:17 10° 275° (W) 20:20:01 437.365/2234.400
AUBIESAT-1 31 May 20:21:07 20:25:01 53° 254° (WSW) 20:28:40 437.475
CUSAT 1 31 May 20:27:55 20:30:10 11° 50° (NE) 20:32:18 437.405
ZACube-1 31 May 20:31:24 20:34:21 19° 66° (ENE) 20:37:15 437.345
M-CUBED/EXP-1 PRIME 31 May 20:32:16 20:35:56 32° 256° (WSW) 20:39:21 437.505
CINEMA 3 31 May 20:37:22 20:41:56 55° 260° (W) 20:46:20 145.822/145.860
DOVE 4 31 May 20:41:53 20:45:31 19° 268° (W) 20:49:04 437.250
AIST 2 31 May 20:42:45 20:46:03 22° 44° (NE) 20:49:19 435.215
SEEDS 31 May 20:46:53 20:51:00 62° 259° (W) 20:55:11 437.485
ISS 31 May 20:53:16 20:56:31 69° 328° (NNW) 20:59:47 145.825
CANX-2 31 May 20:54:04 20:57:52 33° 264° (W) 21:01:42 2200.000
CUBEBUG 2 31 May 20:55:46 21:00:04 75° 76° (ENE) 21:04:17 437.445
RS-15 31 May 20:59:25 21:09:03 27° 347° (NNW) 21:19:02 29.354- 29.394
DANDE 31 May 21:02:21 21:06:13 14° 52° (NE) 21:09:54 436.750
FUNcube-1 31 May 21:05:44 21:09:39 40° 72° (ENE) 21:13:32 145.935
BEESAT 2 31 May 21:11:31 21:13:52 15° 250° (WSW) 21:16:14 435.950
DELFI C3 31 May 21:14:17 21:17:40 27° 69° (ENE) 21:21:05 145.870
UWE-3 31 May 21:14:30 21:18:45 82° 76° (ENE) 21:22:57 435.000/436.395/437.385
PRISM 31 May 21:18:36 21:22:44 55° 101° (E) 21:26:48 437.425
CUTE 1.7 + AOD 2 31 May 21:21:17 21:24:23 20° 267° (W) 21:27:30 437.475
AAUSAT CUBESAT 2 31 May 21:22:25 21:26:21 42° 262° (W) 21:30:19 437.432
COMPASS 1 31 May 21:24:49 21:28:34 32° 264° (W) 21:32:20 437.405
HO-68 31 May 21:26:24 21:32:31 30° 265° (W) 21:38:42 435.675
HUMSAT D 31 May 21:34:31 21:37:39 22° 67° (ENE) 21:40:48 437.325/437.525
PHONESAT 2.4 31 May 21:36:22 21:39:20 40° 167° (SSE) 21:42:19 2401.200-2431.200
STRAND 1 31 May 21:41:32 21:45:25 22° 297° (WNW) 21:49:18 437.568
GONETS M04 31 May 21:41:35 21:50:15 67° 93° (E) 21:58:53
Oscar 11 31 May 21:42:28 21:46:44 65° 259° (W) 21:51:02 145.826/435.025
AIST 1 31 May 21:48:43 21:52:46 35° 284° (WNW) 21:56:50
ZACube-1 31 May 22:06:26 22:10:22 39° 262° (W) 22:14:17 437.345
CUSAT 1 31 May 22:06:58 22:14:22 56° 74° (ENE) 22:20:19 437.405
UNISAT 6 31 May 22:09:14 22:10:25 11° 89° (E) 22:11:38 437.425
TIGRISAT 31 May 22:14:42 22:16:23 12° 90° (E) 22:18:04 435.000
Cosmos 2499 31 May 22:15:10 22:22:24 64° 92° (E) 22:30:13 435.465 / 435.565
AIST 2 31 May 22:20:46 22:24:44 44° 242° (WSW) 22:28:40 435.215
ESTCUBE 1 31 May 22:30:14 22:33:29 20° 64° (ENE) 22:36:45 437.505/2401.250
ISS 31 May 22:30:50 22:33:24 21° 348° (NNW) 22:35:58 145.825
VELOX 1 31 May 22:33:11 22:35:37 15° 62° (ENE) 22:38:03 145.980
DANDE 31 May 22:42:50 22:51:07 58° 74° (ENE) 22:58:16 436.750
FUNcube-1 31 May 22:43:17 22:46:04 17° 268° (W) 22:48:51 145.935
ANTELSAT 31 May 22:48:04 22:51:53 29° 96° (E) 22:55:44 437.575/2403.000
DELFI C3 31 May 22:49:18 22:52:31 23° 266° (W) 22:55:45 145.870
UKube-1 31 May 22:51:41 22:54:10 15° 62° (ENE) 22:56:40 .
PRISM 31 May 22:55:20 22:57:35 14° 298° (WNW) 22:59:48 437.425
SO-50 31 May 23:06:57 23:11:16 32° 115° (ESE) 23:15:36 436.795
AISAT 31 May 23:08:03 23:12:03 33° 69° (ENE) 23:16:03 437.250
HUMSAT D 31 May 23:09:29 23:13:07 31° 263° (W) 23:16:47 437.325/437.525
PHONESAT 2.4 31 May 23:12:48 23:15:52 52° 184° (S) 23:18:56 2401.200-2431.200
RS-15 31 May 23:16:22 23:26:47 31° 22° (NNE) 23:37:19 29.354- 29.394
DUCHIFAT 1 31 May 23:24:03 23:25:11 11° 89° (E) 23:26:19 145.980
GONETS M04 31 May 23:40:26 23:47:45 29° 294° (WNW) 23:55:05
UNISAT 6 31 May 23:43:16 23:47:35 70° 286° (WNW) 23:51:58 437.425
DX 1 31 May 23:45:12 23:49:33 65° 74° (ENE) 23:53:54 434.975-435.025
CUBEBUG 1 31 May 23:47:20 23:51:46 83° 75° (ENE) 23:56:13 437.445
50 SAT 31 May 23:48:48 23:52:26 83° 258° (WSW) 23:56:07 437.505
TIGRISAT 31 May 23:49:11 23:53:28 64° 286° (WNW) 23:57:48 435.000
CUSAT 1 31 May 23:49:55 23:55:51 27° 277° (W) 00:00:53 437.405
SPROUT 31 May 23:52:51 23:56:46 36° 70° (ENE) 00:00:42 437.525
TISAT 1 01 Jun 00:01:20 00:03:25 14° 62° (ENE) 00:05:30 437.305
QB50P1 01 Jun 00:05:26 00:09:21 36° 98° (E) 00:13:13 145.935-145.965
POPSAT HIP 1 01 Jun 00:05:32 00:09:25 35° 98° (E) 00:13:16 437.405
ESTCUBE 1 01 Jun 00:05:39 00:09:58 44° 261° (W) 00:14:20 437.505/2401.250
VELOX 1 01 Jun 00:07:09 00:11:34 63° 259° (WSW) 00:16:02 145.980
ISS 01 Jun 00:08:15 00:10:41 19° 8° (N) 00:13:07 145.825
QB50P2 01 Jun 00:09:24 00:13:26 42° 99° (E) 00:17:25 145.880/145.840
Cosmos 2499 01 Jun 00:10:12 00:16:14 26° 295° (WNW) 00:22:39 435.465 / 435.565
POLYITAN 1 01 Jun 00:11:53 00:15:54 43° 99° (E) 00:19:55 437.675
NANOSAT C BR1 01 Jun 00:20:56 00:25:03 51° 100° (E) 00:29:07 145.865
JAS-2 01 Jun 00:23:39 00:27:42 16° 84° (E) 00:31:31 435.910
ANTELSAT 01 Jun 00:24:54 00:28:30 26° 292° (WNW) 00:32:10 437.575/2403.000
UKube-1 01 Jun 00:25:30 00:29:46 56° 259° (W) 00:34:04 .
DANDE 01 Jun 00:26:22 00:33:28 33° 275° (W) 00:39:46 436.750
AISAT 01 Jun 00:44:53 00:48:33 25° 265° (W) 00:52:14 437.250
SO-50 01 Jun 00:47:07 00:51:41 37° 312° (NW) 00:56:15 436.795
PHONESAT 2.4 01 Jun 00:49:38 00:52:18 25° 201° (SSW) 00:54:57 2401.200-2431.200
BUGSAT 1 01 Jun 00:55:09 00:59:07 53° 101° (E) 01:03:02 437.445
DUCHIFAT 1 01 Jun 00:57:10 01:01:19 65° 286° (WNW) 01:05:27 145.980
SWISSCUBE 01 Jun 01:23:14 01:27:00 24° 65° (ENE) 01:30:45 437.505
DX 1 01 Jun 01:24:26 01:26:10 12° 270° (W) 01:27:53 434.975-435.025
SPROUT 01 Jun 01:29:37 01:32:50 20° 267° (W) 01:36:03 437.525
RS-15 01 Jun 01:29:41 01:42:01 70° 51° (NE) 01:54:18 29.354- 29.394
ITUPSAT 1 01 Jun 01:31:55 01:35:48 25° 65° (ENE) 01:39:43 437.325
TISAT 1 01 Jun 01:34:25 01:38:35 60° 259° (W) 01:42:46 437.305
QB50P1 01 Jun 01:41:46 01:44:53 20° 294° (WNW) 01:48:00 145.935-145.965
POPSAT HIP 1 01 Jun 01:41:50 01:44:58 21° 294° (WNW) 01:48:07 437.405
ISS 01 Jun 01:44:29 01:47:41 49° 28° (NNE) 01:50:52 145.825
QB50P2 01 Jun 01:46:03 01:48:55 18° 295° (WNW) 01:51:46 145.880/145.840
Gurwin Techsat 1B 01 Jun 01:46:05 01:48:03 12° 88° (E) 01:50:03 435.225
POLYITAN 1 01 Jun 01:48:35 01:51:23 18° 296° (WNW) 01:54:12 437.675
BEESAT 01 Jun 01:51:34 01:55:58 39° 69° (ENE) 02:00:24 436.000
NANOSAT C BR1 01 Jun 01:57:57 02:00:22 15° 297° (WNW) 02:02:46 145.865
YUBILEINY 01 Jun 01:59:54 02:07:20 29° 67° (ENE) 02:14:44 435.215
JAS-2 01 Jun 02:06:30 02:13:53 90° 103° (ESE) 02:20:22 435.910
Oscar 19 01 Jun 02:21:18 02:26:25 61° 101° (ESE) 02:31:28 437.125/150
BUGSAT 1 01 Jun 02:32:02 02:34:02 14° 297° (WNW) 02:36:03 437.445
Cosmos 2491 01 Jun 02:58:33 03:05:59 32° 83° (E) 03:13:23 435.465 / 435.565
SWISSCUBE 01 Jun 03:00:06 03:04:33 40° 262° (W) 03:09:03 437.505
KKS-1 01 Jun 03:05:21 03:09:09 28° 67° (ENE) 03:12:57 437.445
ITUPSAT 1 01 Jun 03:09:03 03:13:27 37° 262° (W) 03:17:53 437.325
ITAMSAT 1 01 Jun 03:13:56 03:18:32 31° 96° (E) 03:23:07 435.822/435.867
ISS 01 Jun 03:21:19 03:23:56 22° 225° (SW) 03:26:33 145.825
Gurwin Techsat 1B 01 Jun 03:23:20 03:28:42 86° 284° (WNW) 03:34:01 435.225
AO-7 01 Jun 03:24:42 03:30:30 20° 91° (E) 03:36:16 29.400- 29.500
STARS 01 Jun 03:27:48 03:31:23 25° 66° (ENE) 03:34:57 437.465
BEESAT 01 Jun 03:30:07 03:33:52 23° 266° (W) 03:37:40 436.000
RS-15 01 Jun 03:42:58 03:53:45 38° 254° (WSW) 04:04:31 29.354- 29.394
Cosmos 2504 01 Jun 03:45:04 03:52:58 39° 72° (ENE) 04:01:05 435.465 / 435.565
JAS-2 01 Jun 03:52:55 03:57:47 20° 306° (NW) 04:02:21 435.910
MOZHAYETS 4 01 Jun 03:55:50 04:00:21 68° 74° (ENE) 04:04:55
YUBILEINY 01 Jun 03:56:07 04:04:45 65° 268° (W) 04:13:24 435.215
Oscar 19 01 Jun 04:01:45 04:05:15 19° 299° (WNW) 04:08:43 437.125/150
CUBESAT XI-V 01 Jun 04:01:55 04:02:45 10° 58° (ENE) 04:03:33 437.345
AO-85 01 Jun 04:33:23 04:38:06 31° 113° (ESE) 04:42:46 145.980
KKS-1 01 Jun 04:41:45 04:45:39 29° 264° (W) 04:49:33 437.445
ITAMSAT 1 01 Jun 04:53:18 04:58:00 35° 293° (WNW) 05:02:42 435.822/435.867
Cosmos 2491 01 Jun 04:53:36 05:02:17 59° 283° (WNW) 05:10:59 435.465 / 435.565
STARS 01 Jun 05:03:39 05:07:36 32° 263° (W) 05:11:34 437.465
Gurwin Techsat 1B 01 Jun 05:05:30 05:07:50 13° 303° (WNW) 05:10:09 435.225
AO-7 01 Jun 05:15:48 05:24:14 87° 290° (WNW) 05:32:37 29.400- 29.500
CUBESAT XI-V 01 Jun 05:34:38 05:39:19 84° 77° (ENE) 05:44:04 437.345
MOZHAYETS 4 01 Jun 05:36:08 05:38:00 12° 271° (W) 05:39:53
Cosmos 2504 01 Jun 05:38:22 05:46:29 50° 271° (W) 05:54:54 435.465 / 435.565
STRAND 1 01 Jun 05:43:34 05:45:01 11° 56° (ENE) 05:46:29 437.568
YUBILEINY 01 Jun 05:57:08 05:59:41 12° 288° (WNW) 06:02:16 435.215
HORYU 2 01 Jun 05:57:33 06:02:01 85° 106° (ESE) 06:06:28 437.375
NOAA 15 01 Jun 05:58:05 06:01:34 18° 91° (E) 06:05:01 137.62
AO-85 01 Jun 06:13:16 06:18:29 45° 310° (NW) 06:23:34 145.980
Cubesat XI-IV 01 Jun 06:20:51 06:24:45 20° 92° (E) 06:28:39 437.490
GOMX 1 01 Jun 06:39:22 06:41:45 14° 89° (E) 06:44:05 467.674
BRITE-PL 01 Jun 06:39:28 06:43:57 34° 95° (E) 06:48:05 437.365/2234.400
Cosmos 2491 01 Jun 06:58:11 07:01:22 12° 307° (NW) 07:04:33 435.465 / 435.565
NOAA 18 01 Jun 06:59:38 07:05:00 52° 100° (E) 07:10:20 137.9125
DOVE 4 01 Jun 07:03:41 07:04:33 11° 88° (E) 07:05:25 437.250
CUTE-I 01 Jun 07:04:33 07:09:46 50° 100° (E) 07:14:58 437.470
AO-7 01 Jun 07:09:55 07:15:55 23° 310° (NW) 07:21:55 29.400- 29.500
CUBESAT XI-V 01 Jun 07:16:50 07:17:19 10° 273° (W) 07:17:49 437.345
STRAND 1 01 Jun 07:18:14 07:23:19 79° 75° (ENE) 07:28:28 437.568
NOAA 15 01 Jun 07:36:32 07:41:46 61° 288° (WNW) 07:46:57 137.62
LilacSat-2 01 Jun 07:36:40 07:40:26 67° 284° (WNW) 07:44:12 437.200
HORYU 2 01 Jun 07:36:46 07:37:54 11° 301° (WNW) 07:39:02 437.375
SO-50 01 Jun 07:37:17 07:41:42 37° 47° (NE) 07:45:57 436.795
O/OREOS (USA 219) 01 Jun 07:44:51 07:46:49 13° 98° (E) 07:48:48 437.305
GONETS M04 01 Jun 07:51:02 07:58:48 34° 69° (ENE) 08:06:30
AIST 1 01 Jun 07:54:22 07:58:41 60° 80° (E) 08:02:55
AO-85 01 Jun 07:58:19 08:00:16 12° 331° (NNW) 08:02:12 145.980
PCSat 01 Jun 07:59:09 08:02:59 20° 106° (ESE) 08:06:49 145.827
Cubesat XI-IV 01 Jun 07:59:55 08:05:10 55° 289° (WNW) 08:10:23 437.490
Cosmos 2499 01 Jun 08:04:41 08:11:50 27° 66° (ENE) 08:19:04 435.465 / 435.565
PRISM 01 Jun 08:08:39 08:12:37 44° 71° (ENE) 08:16:37 437.425
GOMX 1 01 Jun 08:15:51 08:20:19 53° 288° (WNW) 08:24:29 467.674
BRITE-PL 01 Jun 08:18:08 08:22:18 27° 294° (WNW) 08:26:10 437.365/2234.400
SEEDS 01 Jun 08:30:29 08:33:42 20° 93° (E) 08:36:53 437.485
CINEMA 3 01 Jun 08:31:21 08:34:58 29° 96° (E) 08:38:37 145.822/145.860
CANX-2 01 Jun 08:37:43 08:41:44 38° 97° (E) 08:45:45 2200.000
DOVE 4 01 Jun 08:38:32 08:42:49 65° 285° (WNW) 08:46:55 437.250
NOAA 18 01 Jun 08:41:02 08:45:18 24° 298° (WNW) 08:49:35 137.9125
CUTE-I 01 Jun 08:45:18 08:49:29 24° 297° (WNW) 08:53:40 437.470
CUBEBUG 2 01 Jun 08:46:59 08:49:08 14° 91° (E) 08:51:18 437.445
HO-68 01 Jun 08:51:36 08:58:36 52° 101° (E) 09:05:32 435.675
STRAND 1 01 Jun 09:00:57 09:03:06 13° 271° (W) 09:05:16 437.568
CUTE 1.7 + AOD 2 01 Jun 09:03:47 09:08:04 65° 101° (E) 09:12:20 437.475
AAUSAT CUBESAT 2 01 Jun 09:03:54 09:07:29 27° 95° (E) 09:11:03 437.432
UWE-3 01 Jun 09:04:17 09:06:42 15° 91° (E) 09:09:08 435.000/436.395/437.385
COMPASS 1 01 Jun 09:06:22 09:10:16 35° 97° (E) 09:14:09 437.405
UNISAT 6 01 Jun 09:09:25 09:10:59 12° 61° (ENE) 09:12:32 437.425
TIGRISAT 01 Jun 09:14:48 09:16:39 13° 62° (ENE) 09:18:32 435.000
SO-50 01 Jun 09:18:02 09:22:03 29° 246° (WSW) 09:25:56 436.795
O/OREOS (USA 219) 01 Jun 09:21:07 09:25:38 66° 295° (WNW) 09:30:10 437.305
Oscar 11 01 Jun 09:29:22 09:32:41 21° 93° (E) 09:36:01 145.826/435.025
AUBIESAT-1 01 Jun 09:33:10 09:36:29 89° 289° (WNW) 09:39:51 437.475
AIST 1 01 Jun 09:34:07 09:35:42 12° 277° (W) 09:37:16
PCSat 01 Jun 09:40:31 09:45:53 61° 304° (WNW) 09:51:17 145.827
M-CUBED/EXP-1 PRIME 01 Jun 09:44:43 09:47:53 47° 292° (WNW) 09:51:04 437.505
PRISM 01 Jun 09:45:34 09:48:09 16° 268° (W) 09:50:45 437.425
GONETS M04 01 Jun 09:47:35 09:55:58 55° 270° (W) 10:04:20
ANTELSAT 01 Jun 09:47:58 09:51:39 29° 69° (ENE) 09:55:21 437.575/2403.000
BEESAT 3 01 Jun 09:50:24 09:53:22 21° 113° (ESE) 09:56:21 437.485
ZACube-1 01 Jun 09:53:25 09:57:17 33° 97° (E) 10:01:11 437.345
Cosmos 2499 01 Jun 09:57:02 10:05:42 73° 266° (W) 10:14:32 435.465 / 435.565
SEEDS 01 Jun 10:05:35 10:09:30 36° 289° (WNW) 10:13:24 437.485
CINEMA 3 01 Jun 10:08:42 10:12:02 24° 292° (WNW) 10:15:22 145.822/145.860
CANX-2 01 Jun 10:14:11 10:17:21 20° 294° (WNW) 10:20:32 2200.000
DUCHIFAT 1 01 Jun 10:17:58 10:18:37 10° 60° (ENE) 10:19:17 145.980
CUBEBUG 2 01 Jun 10:21:59 10:26:04 52° 287° (WNW) 10:30:13 437.445
DELFI C3 01 Jun 10:25:13 10:29:02 39° 98° (E) 10:32:49 145.870
FUNcube-1 01 Jun 10:28:18 10:32:32 79° 101° (E) 10:36:51 145.935
JAS-2 01 Jun 10:39:10 10:41:25 11° 47° (NE) 10:43:40 435.910
AAUSAT CUBESAT 2 01 Jun 10:39:21 10:42:55 27° 292° (WNW) 10:46:27 437.432
UWE-3 01 Jun 10:39:22 10:43:25 49° 287° (WNW) 10:47:34 435.000/436.395/437.385
HO-68 01 Jun 10:39:46 10:46:02 34° 299° (WNW) 10:52:17 435.675
CUTE 1.7 + AOD 2 01 Jun 10:41:25 10:43:22 13° 298° (WNW) 10:45:19 437.475
COMPASS 1 01 Jun 10:42:25 10:45:37 21° 294° (WNW) 10:48:48 437.405
UNISAT 6 01 Jun 10:42:49 10:47:08 72° 258° (WSW) 10:51:24 437.425
TIGRISAT 01 Jun 10:48:33 10:52:50 66° 259° (W) 10:57:06 435.000
HUMSAT D 01 Jun 10:51:25 10:55:17 35° 97° (E) 10:59:10 437.325/437.525
QB50P1 01 Jun 10:58:44 11:02:28 31° 69° (ENE) 11:06:11 145.935-145.965
POPSAT HIP 1 01 Jun 10:58:53 11:02:35 30° 69° (ENE) 11:06:18 437.405
BEESAT 2 01 Jun 11:02:31 11:06:28 72° 121° (ESE) 11:10:27 435.950
QB50P2 01 Jun 11:02:48 11:06:39 36° 70° (ENE) 11:10:32 145.880/145.840
Oscar 11 01 Jun 11:04:56 11:08:56 36° 290° (WNW) 11:12:54 145.826/435.025
POLYITAN 1 01 Jun 11:05:18 11:09:09 36° 70° (ENE) 11:13:02 437.675
CUSAT 1 01 Jun 11:07:45 11:14:26 55° 92° (E) 11:22:09 437.405
NANOSAT C BR1 01 Jun 11:13:45 11:17:44 42° 71° (ENE) 11:21:43 145.865
ANTELSAT 01 Jun 11:24:46 11:28:21 26° 265° (W) 11:31:57 437.575/2403.000
BEESAT 3 01 Jun 11:27:10 11:30:50 37° 310° (NW) 11:34:33 437.485
PCSat 01 Jun 11:27:48 11:30:25 13° 325° (NW) 11:33:04 145.827
ZACube-1 01 Jun 11:30:07 11:33:24 22° 293° (WNW) 11:36:43 437.345
DX 1 01 Jun 11:35:50 11:36:09 10° 89° (E) 11:36:30 434.975-435.025
CUBEBUG 1 01 Jun 11:36:38 11:38:58 14° 91° (E) 11:41:17 437.445
BUGSAT 1 01 Jun 11:45:27 11:49:24 42° 71° (ENE) 11:53:19 437.445
DUCHIFAT 1 01 Jun 11:49:28 11:53:41 81° 258° (WSW) 11:57:54 145.980
DANDE 01 Jun 11:50:45 11:56:41 56° 92° (E) 12:04:11 436.750
Cosmos 2499 01 Jun 11:53:02 11:57:18 15° 285° (WNW) 12:01:38 435.465 / 435.565
VELOX 1 01 Jun 11:56:58 12:00:28 22° 94° (E) 12:03:55 145.980
ESTCUBE 1 01 Jun 11:57:10 12:01:21 35° 97° (E) 12:05:29 437.505/2401.250
DELFI C3 01 Jun 12:00:51 12:03:36 18° 294° (WNW) 12:06:20 145.870
Oscar 19 01 Jun 12:02:56 12:05:29 14° 58° (ENE) 12:08:02 437.125/150
FUNcube-1 01 Jun 12:07:14 12:08:12 11° 299° (WNW) 12:09:09 145.935
UKube-1 01 Jun 12:12:18 12:15:39 21° 94° (E) 12:18:58 .
JAS-2 01 Jun 12:17:21 12:24:34 49° 67° (ENE) 12:32:04 435.910
AIST 2 01 Jun 12:19:08 12:22:42 29° 115° (ESE) 12:26:17 435.215
HUMSAT D 01 Jun 12:27:33 12:30:42 21° 293° (WNW) 12:33:52 437.325/437.525
AISAT 01 Jun 12:33:10 12:37:32 57° 101° (E) 12:41:51 437.250
QB50P1 01 Jun 12:34:50 12:38:15 23° 265° (W) 12:41:40 145.935-145.965
POPSAT HIP 1 01 Jun 12:34:57 12:38:23 24° 265° (W) 12:41:49 437.405
QB50P2 01 Jun 12:39:25 12:42:34 20° 266° (W) 12:45:44 145.880/145.840
POLYITAN 1 01 Jun 12:41:59 12:45:05 20° 266° (W) 12:48:11 437.675
BEESAT 2 01 Jun 12:42:23 12:44:46 15° 320° (NW) 12:47:11 435.950
CUSAT 1 01 Jun 12:50:36 12:56:56 34° 294° (WNW) 13:04:03 437.405
50 SAT 01 Jun 12:50:45 12:54:29 73° 286° (WNW) 12:58:13 437.505
NANOSAT C BR1 01 Jun 12:50:54 12:53:40 17° 268° (W) 12:56:26 145.865
AO-85 01 Jun 13:04:30 13:08:44 31° 45° (NE) 13:12:38 145.980
Gurwin Techsat 1B 01 Jun 13:07:04 13:11:08 23° 63° (ENE) 13:15:12 435.225
Cosmos 2491 01 Jun 13:07:52 13:12:56 16° 57° (ENE) 13:17:57 435.465 / 435.565
DX 1 01 Jun 13:08:30 13:12:52 75° 285° (WNW) 13:17:11 434.975-435.025
CUBEBUG 1 01 Jun 13:11:20 13:15:36 54° 287° (WNW) 13:19:49 437.445
SPROUT 01 Jun 13:13:18 13:17:32 62° 101° (E) 13:21:44 437.525
TISAT 1 01 Jun 13:18:14 13:21:12 19° 93° (E) 13:24:09 437.305
BUGSAT 1 01 Jun 13:22:14 13:24:57 17° 267° (W) 13:27:40 437.445
VELOX 1 01 Jun 13:32:59 13:37:01 35° 291° (WNW) 13:41:00 145.980
ESTCUBE 1 01 Jun 13:34:18 13:37:59 25° 294° (WNW) 13:41:38 437.505/2401.250
DANDE 01 Jun 13:34:31 13:40:06 30° 296° (WNW) 13:46:45 436.750
Oscar 19 01 Jun 13:38:52 13:44:04 86° 256° (WSW) 13:49:18 437.125/150
UKube-1 01 Jun 13:47:50 13:51:47 35° 291° (WNW) 13:55:41 .
AIST 2 01 Jun 13:57:27 14:01:07 30° 312° (NW) 14:04:50 435.215
JAS-2 01 Jun 14:02:42 14:09:38 39° 266° (W) 14:16:54 435.910
AISAT 01 Jun 14:11:00 14:13:32 15° 298° (WNW) 14:16:03 437.250
